Weather History for Valentine, NE

Change the Weather History Date:

Saturday, February 2, 2013

  Actual Average Record
Temperature  
Mean Temperature 37 °F 25 °F  
Max Temperature 49 °F 37 °F 66 °F (1890)
Min Temperature 24 °F 12 °F -36 °F (1905)
Degree Days  
Heating Degree Days 28 40  
Month to date heating degree days 67 80  
Since 1 July heating degree days 4002 4258  
Cooling Degree Days 0 0  
Month to date cooling degree days 0 0  
Year to date cooling degree days 0 0  
Moisture  
Dew Point 27 °F    
Average Humidity 69    
Maximum Humidity 96    
Minimum Humidity 42    
Precipitation  
Precipitation T in 0.01 in 0.39 in (1995)
Month to date precipitation 0.02 0.02  
Year to date precipitation 0.27 0.28  
Snow  
Snow 0.00 in 0.10 in 5.80 in (1936)
Month to date snowfall 0.0 0.3  
Since 1 July snowfall 18.2 16.8  
Snow Depth 0.00 in    
Sea Level Pressure  
Sea Level Pressure 30.18 in    
Wind  
Wind Speed 13 mph (WNW)    
Max Wind Speed 29 mph    
Max Gust Speed 38 mph    
Visibility 10 miles    
Events      
T = Trace of Precipitation, MM = Missing Value Source: NWS Daily Summary

Daily Weather History Graph

Daily Weather History Graph

Search for Another Location

Airport:

Trip Planner

Search our weather history database for the weather conditions in past years. The results will help you decide how hot, cold, wet, or windy it might be!

Date:

Astronomy

Feb. 02, 2013 Rise Set
Actual Time 7:55 AM CST 5:56 PM CST
Civil Twilight 7:25 AM CST 6:26 PM CST
Nautical Twilight 6:51 AM CST 7:00 PM CST
Astronomical Twilight 6:18 AM CST 7:33 PM CST
Moon 12:15 AM CST (2/2) 10:55 AM CST (2/2)
Length of Visible Light 11h 01m
Length of Day
10h 01m
Waning Gibbous, 59% of the Moon is Illuminated
Feb 2
Waning Gibbous
Feb 3
Last Quarter
Feb 10
New
Feb 17
First Quarter
Feb 25
Full

Hourly Weather History & Observations

Time (CST) Temp. Windchill Dew Point Humidity Pressure Visibility Wind Dir Wind Speed Gust Speed Precip Events Conditions
12:52 AM 35.1 °F 27.9 °F 30.9 °F 85% 30.12 in 10.0 mi WNW 9.2 mph - N/A   Overcast
1:52 AM 35.1 °F 31.0 °F 30.0 °F 82% 30.12 in 10.0 mi WNW 4.6 mph - N/A   Overcast
2:52 AM 36.0 °F 28.5 °F 30.9 °F 82% 30.14 in 10.0 mi WNW 10.4 mph - N/A   Overcast
3:52 AM 34.0 °F 25.0 °F 30.9 °F 89% 30.15 in 10.0 mi WNW 12.7 mph - 0.00 in   Partly Cloudy
4:52 AM 34.0 °F 26.6 °F 32.0 °F 92% 30.16 in 10.0 mi WNW 9.2 mph - N/A   Overcast
5:52 AM 34.0 °F 26.0 °F 30.9 °F 89% 30.17 in 10.0 mi West 10.4 mph - N/A   Overcast
6:52 AM 34.0 °F 25.0 °F 30.0 °F 85% 30.16 in 10.0 mi West 12.7 mph - N/A   Overcast
7:52 AM 33.1 °F 23.9 °F 28.0 °F 82% 30.18 in 10.0 mi West 12.7 mph - N/A   Mostly Cloudy
8:52 AM 33.1 °F 24.9 °F 28.0 °F 82% 30.18 in 10.0 mi West 10.4 mph - N/A   Partly Cloudy
9:52 AM 37.0 °F 27.7 °F 28.9 °F 73% 30.17 in 10.0 mi West 16.1 mph - N/A   Overcast
10:52 AM 42.1 °F 32.8 °F 28.9 °F 60% 30.17 in 10.0 mi WNW 21.9 mph 29.9 mph N/A   Overcast
11:52 AM 44.1 °F 36.2 °F 28.9 °F 55% 30.16 in 10.0 mi West 18.4 mph - N/A   Overcast
12:52 PM 46.9 °F - 26.1 °F 44% 30.14 in 10.0 mi WNW 20.7 mph 33.4 mph N/A   Clear
1:52 PM 48.0 °F - 26.1 °F 42% 30.12 in 10.0 mi WNW 21.9 mph 35.7 mph N/A   Clear
2:52 PM 46.0 °F 38.8 °F 26.1 °F 46% 30.13 in 10.0 mi WNW 18.4 mph 29.9 mph N/A   Overcast
3:52 PM 46.9 °F - 26.1 °F 44% 30.14 in 10.0 mi WNW 23.0 mph 33.4 mph N/A   Clear
4:52 PM 45.0 °F 36.9 °F 25.0 °F 46% 30.16 in 10.0 mi WNW 20.7 mph 34.5 mph N/A   Mostly Cloudy
5:52 PM 42.1 °F 34.5 °F 26.1 °F 53% 30.18 in 10.0 mi NW 15.0 mph 21.9 mph N/A   Scattered Clouds
6:52 PM 39.2 °F 31.6 °F 24.8 °F 56% 30.13 in 10.0 mi NW 12.7 mph 20.7 mph N/A   Clear
7:52 PM 36.0 °F 28.5 °F 25.0 °F 64% 30.23 in 10.0 mi NNW 10.4 mph - N/A   Clear
8:52 PM 35.1 °F 26.4 °F 24.1 °F 64% 30.25 in 10.0 mi NW 12.7 mph 21.9 mph N/A   Clear
9:52 PM 32.0 °F 26.4 °F 24.1 °F 73% 30.26 in 10.0 mi NW 5.8 mph - N/A   Clear
10:52 PM 30.0 °F 24.1 °F 23.0 °F 75% 30.26 in 10.0 mi NW 5.8 mph - N/A   Clear
11:52 PM 25.0 °F 17.1 °F 21.0 °F 85% 30.27 in 10.0 mi West 6.9 mph - N/A   Clear